Content
SEND FEEDBACK

Daily
Averages
Monthly
Summary
United States of America

DURKEE, OREGON


Home > North America > United States > Oregon
Elevation: 278 feet     Latitude: 44 37N     Longitude: 117 29W

WEATHER
 
SELECT A DAY
Number of Records: 190,715;   Date Range: 1/1/95 - 8/30/14
 
SHARE

PRINT THIS DATA

[ ← Previous Day ]
WEATHER ALMANAC - JANUARY 31, 2013
[ Next Day → ]
[ °C ]   °F
Weather ElementAverageHighLow
Temperature33.3 °F39.9 °F (10:53 am)30 °F (1:53 am)
Dewpoint31.5 °F36 °F (10:53 am)28 °F (2:53 am)
Humidity93.3 %100 % (4:46 am)79 % (2:53 pm)
Barometer30.31 in30.39 in (8:53 am)30.24 in (9:25 pm)
Wind Speed2.2 mph6.9 mph (11:53 am)
Weather ElementAverage
Visibility7.5 mi
Wind DirectionESE (106.9 °)

Weather ElementTotal
Precipitation---
Heating Degree Days30.1 (Base 65)
Averaged from 42 records on January 31, 2013
WEATHER CONDITIONS BREAKOUT
WIND DIRECTION BREAKOUT
WEATHER BY HOUR - JANUARY 31, 2013
[ °C ]   °F
Local TimeTemperatureDewpointHumidityBarometerVisibilityWind DirectionWind SpeedGust SpeedPrecipitationEventsConditions
1:53 AM30.0 °F28.9 °F96 %30.36 in9.0 miCalmPartly Cloudy
2:53 AM30.0 °F28.0 °F92 %30.36 in10.0 miENE (70°)3.5 mphScattered Clouds
3:53 AM30.0 °F28.9 °F96 %30.35 in10.0 miCalmMostly Cloudy
4:46 AM30.2 °F30.2 °F100 %30.30 in9.0 miCalmOvercast
4:53 AM30.9 °F30.0 °F96 %30.36 in10.0 miCalmOvercast
5:03 AM30.2 °F30.2 °F100 %30.30 in10.0 miCalmOvercast
5:44 AM30.2 °F30.2 °F100 %30.30 in10.0 miCalmOvercast
5:53 AM32.0 °F30.0 °F92 %30.36 in10.0 miCalmOvercast
6:53 AM32.0 °F30.0 °F92 %30.36 in10.0 miCalmOvercast
7:12 AM32.0 °F30.2 °F93 %30.30 in9.0 miCalmOvercast
7:21 AM32.0 °F30.2 °F93 %30.30 in8.0 miCalmOvercast
7:51 AM32.0 °F30.2 °F93 %30.30 in6.0 miSE (130°)3.5 mphOvercast
7:53 AM32.0 °F30.9 °F96 %30.37 in6.0 miSE (130°)4.6 mphOvercast
8:53 AM33.1 °F32.0 °F96 %30.39 in8.0 miNE (40°)3.5 mphOvercast
9:53 AM35.1 °F33.1 °F92 %30.38 in10.0 miCalmOvercast
10:04 AM35.6 °F33.8 °F93 %30.32 in10.0 miWSW (240°)3.5 mphOvercast
10:53 AM39.9 °F36.0 °F86 %30.37 in10.0 miNNW (330°)4.6 mphScattered Clouds
11:53 AM39.0 °F34.0 °F82 %30.35 in10.0 miWest (270°)6.9 mphClear
12:53 PM39.0 °F35.1 °F86 %30.33 in10.0 miCalmClear
1:53 PM39.9 °F35.1 °F83 %30.33 in10.0 miWest (270°)4.6 mphMostly Cloudy
2:53 PM39.9 °F34.0 °F79 %30.32 in10.0 miCalmPartly Cloudy
3:07 PM39.2 °F33.8 °F81 %30.27 in10.0 miCalmMostly Cloudy
3:43 PM39.2 °F33.8 °F81 %30.26 in10.0 miCalmScattered Clouds
3:53 PM39.0 °F35.1 °F86 %30.32 in10.0 miCalmScattered Clouds
4:02 PM39.2 °F35.6 °F87 %30.26 in10.0 miCalmMostly Cloudy
4:20 PM39.2 °F35.6 °F87 %30.25 in10.0 miCalmScattered Clouds
4:53 PM36.0 °F34.0 °F93 %30.32 in10.0 miCalmClear
5:53 PM34.0 °F33.1 °F96 %30.31 in9.0 miEast (80°)4.6 mphClear
6:53 PM33.1 °F33.1 °F100 %30.33 in10.0 miCalmMostly Cloudy
7:53 PM30.9 °F30.0 °F96 %30.33 in6.0 miWest (280°)4.6 mphPartly Cloudy
8:53 PM30.0 °F28.9 °F96 %30.32 in4.0 miESE (120°)3.5 mphMostly Cloudy
9:02 PM30.2 °F28.4 °F93 %30.25 in3.0 miCalmMostly Cloudy
9:25 PM30.2 °F30.2 °F100 %30.24 in4.0 miNE (40°)4.6 mphOvercast
9:50 PM30.2 °F30.2 °F100 %30.24 in1.8 miNorth (350°)4.6 mphOvercast
9:53 PM30.9 °F30.0 °F96 %30.32 in1.2 miNorth (350°)4.6 mphOvercast
9:57 PM30.2 °F30.2 °F100 %30.25 in0.8 miNorth (350°)4.6 mphOvercast
10:15 PM30.2 °F30.2 °F100 %30.25 in1.2 miNW (310°)3.5 mphOvercast
10:25 PM30.2 °F30.2 °F100 %30.25 in2.5 miWest (270°)5.8 mphOvercast
10:40 PM30.2 °F30.2 °F100 %30.25 in3.0 miSW (220°)4.6 mphOvercast
10:53 PM30.9 °F30.0 °F96 %30.32 in4.0 miWSW (240°)3.5 mphOvercast
11:00 PM30.2 °F30.2 °F100 %30.26 in4.0 miWSW (250°)3.5 mphOvercast
11:53 PM32.0 °F30.9 °F96 %30.31 in5.0 miSSE (150°)4.6 mphOvercast
Hourly data recorded from KBKE, located miles away from Durkee, Oregon







STORIES FROM OUR PARTNERS